[[{"header":{"parameterUnit":"m.s-1","parameterCategory":1,"la1":30.2991,"la2":30.254,"lo1":-89.0895,"lo2":-89.0444,"dy":0.0017,"dx":0.0017,"nx":28,"ny":28,"refTime":"2023-08-18T03:00:00:Z","depth":0,"parameterNumber":2,"parameterNumberName":"U-component_of_WINDS"},"data":[0,0,0,0,0,0,0,0,0,0,0,0,0,0,0,0,0,0,0,0,0,0,0,0,0,0,0,0,0,0,0,0,0,0,0,0,0,0,0,0,0,0,0,0,0,0,0,0,0,0,0,0,0,0,0,0,0,0,-0.4263,-0.4264,0,-0.4336,-0.4336,-0.4337,-0.4375,-0.4375,-0.4375,-0.4375,-0.4452,-0.4454,-0.4456,0,0,0,0,0,0,0,0,0,0,0,0,0,-0.4161,-0.4163,-0.4263,-0.4264,-0.4265,-0.4335,-0.4336,-0.4337,-0.4375,-0.4375,-0.4375,-0.4375,-0.4452,-0.4454,-0.4456,0,0,0,0,0,0,0,0,0,0,0,0,0,-0.4217,-0.4163,-0.4263,-0.4292,-0.4295,-0.4335,-0.4336,-0.4338,-0.4375,-0.4375,-0.4375,-0.4375,-0.4451,-0.4454,-0.4457,-0.4474,0,0,-0.4466,-0.4467,0,0,0,0,0,0,0,0,-0.4213,-0.422,-0.4287,-0.429,-0.4294,-0.4346,-0.4329,-0.4383,-0.4375,-0.4345,-0.4375,-0.4375,-0.4417,-0.4423,-0.4436,-0.4477,-0.4481,-0.4466,-0.4468,-0.4469,-0.447,0,0,0,0,0,0,0,-0.421,-0.4218,-0.4292,-0.4288,-0.4292,-0.4303,-0.4311,-0.4339,-0.438,-0.4348,-0.4351,-0.4358,-0.4419,-0.4433,-0.4439,-0.4482,-0.4466,-0.4469,-0.4471,-0.4472,-0.4542,-0.4542,0,0,0,0,0,0,-0.4201,-0.4214,-0.429,-0.4294,-0.4253,-0.4305,-0.4314,-0.433,-0.438,-0.4387,-0.4358,-0.436,-0.4428,-0.4435,-0.4441,-0.4466,-0.4469,-0.4472,-0.4474,-0.4542,-0.4542,-0.4542,0,0,0,0,0,0,-0.4198,-0.4207,-0.4287,-0.4255,-0.4266,-0.4306,-0.4324,-0.4331,-0.4345,-0.4388,-0.4395,-0.4365,-0.4429,-0.4437,-0.4466,-0.4469,-0.4473,-0.4476,-0.4542,-0.4542,-0.4542,-0.4513,0,0,0,0,0,0,-0.4195,-0.4206,-0.4212,-0.4255,-0.4267,-0.4308,-0.4324,-0.4332,-0.435,-0.4353,-0.4396,-0.4404,-0.4429,-0.4461,-0.4469,-0.4473,-0.4478,-0.4542,-0.4542,-0.4542,-0.4514,-0.4512,-0.4511,0,0,0,0,0,-0.4191,-0.4201,-0.4212,-0.4221,-0.4275,-0.4308,-0.4316,-0.4344,-0.435,-0.4357,-0.4385,-0.4402,-0.4467,-0.4463,-0.4472,-0.4478,-0.4542,-0.4542,-0.4542,-0.4515,-0.4513,-0.4511,0,0,0,0,0,0,-0.4158,-0.4207,-0.422,-0.4243,-0.4271,-0.4315,-0.4324,-0.4341,-0.4369,-0.437,-0.4406,-0.4415,-0.4441,-0.4462,-0.4457,-0.4498,-0.4506,-0.4508,-0.4483,-0.4481,-0.4479,-0.4474,-0.4481,0,0,0,0,0,-0.4153,-0.4175,-0.4217,-0.4234,-0.4247,-0.4283,-0.4299,-0.4318,-0.4349,-0.4362,-0.4391,-0.4421,-0.4449,-0.4466,-0.4494,-0.4517,-0.4528,-0.4526,-0.4524,-0.4523,-0.4524,-0.454,-0.4539,-0.4543,-0.4543,-0.4543,0,0,-0.4144,-0.4174,-0.4185,-0.4228,-0.4252,-0.4275,-0.4293,-0.4316,-0.4334,-0.4366,-0.4394,-0.4417,-0.4453,-0.448,-0.4493,-0.4498,-0.4525,-0.4523,-0.4521,-0.4524,-0.454,-0.4539,-0.4539,-0.4543,-0.4543,-0.4543,0,0,-0.4139,-0.4163,-0.418,-0.4204,-0.424,-0.4264,-0.4268,-0.4309,-0.4325,-0.4354,-0.4379,-0.4401,-0.4447,-0.4472,-0.4491,-0.4497,-0.4514,-0.4505,-0.4496,-0.4511,-0.4511,-0.4511,-0.4514,-0.4514,-0.4506,-0.4506,-0.4506,0,-0.4124,-0.4158,-0.4187,-0.4209,-0.4228,-0.4257,-0.4276,-0.4297,-0.4341,-0.4354,-0.4359,-0.4418,-0.4445,-0.4478,-0.4479,-0.4493,-0.45,-0.45,-0.4508,-0.4509,-0.4509,-0.4512,-0.4513,-0.4505,-0.4505,-0.4505,-0.4505,0,-0.4137,-0.4161,-0.4171,-0.4211,-0.4231,-0.4251,-0.4285,-0.4302,-0.432,-0.4344,-0.4374,-0.4407,-0.4442,-0.4451,-0.4469,-0.4488,-0.449,-0.4501,-0.4511,-0.4507,-0.4511,-0.4512,-0.4503,-0.4503,-0.4503,-0.4504,0,0,-0.4113,-0.417,-0.4173,-0.4192,-0.4235,-0.4254,-0.4276,-0.431,-0.4324,-0.4353,-0.4374,-0.4412,-0.4424,-0.4445,-0.4466,-0.4479,-0.4483,-0.4489,-0.4491,-0.4488,-0.4507,-0.4498,-0.4499,-0.4495,-0.4495,-0.4496,-0.4504,0,-0.4115,-0.4154,-0.4182,-0.4212,-0.4235,-0.4263,-0.4283,-0.4311,-0.4334,-0.4358,-0.4385,-0.4412,-0.4424,-0.4437,-0.4451,-0.4479,-0.4487,-0.4479,-0.4515,-0.4516,-0.4506,-0.4501,-0.4492,-0.4498,-0.4505,-0.4506,-0.4506,0,-0.4122,-0.4149,-0.4181,-0.4221,-0.4232,-0.4249,-0.4283,-0.4305,-0.4339,-0.4355,-0.4379,-0.4401,-0.4427,-0.4434,-0.4471,-0.4465,-0.4482,-0.4498,-0.4499,-0.4504,-0.4511,-0.4506,-0.45,-0.4501,-0.4508,-0.4508,-0.4508,0,-0.4102,-0.4147,-0.4172,-0.4188,-0.4235,-0.4247,-0.4268,-0.4301,-0.432,-0.435,-0.4363,-0.4396,-0.4414,-0.4439,-0.447,-0.4472,-0.4505,-0.4514,-0.452,-0.4519,-0.4526,-0.4525,-0.4523,-0.4536,-0.4536,-0.4536,-0.4536,0,-0.4101,-0.4119,-0.4164,-0.4179,-0.4201,-0.4234,-0.4255,-0.4278,-0.4309,-0.433,-0.4357,-0.4377,-0.4416,-0.4442,-0.4466,-0.4494,-0.4502,-0.4516,-0.4523,-0.4514,-0.4513,-0.4526,-0.4527,-0.4536,-0.4536,-0.4536,-0.4536,0,-0.4082,-0.4113,-0.4142,-0.4185,-0.4196,-0.4211,-0.4248,-0.4265,-0.429,-0.4317,-0.4325,-0.4365,-0.4396,-0.4429,-0.4472,-0.4488,-0.4515,-0.4524,-0.4503,-0.4507,-0.4512,-0.4511,-0.4519,-0.4522,-0.4531,-0.4531,-0.4531,0,-0.408,-0.4095,-0.4139,-0.4155,-0.4175,-0.42,-0.4219,-0.4252,-0.4272,-0.4312,-0.4324,-0.4357,-0.4385,-0.4434,-0.4467,-0.45,-0.4511,-0.4511,-0.4516,-0.4507,-0.4512,-0.451,-0.4513,-0.4509,-0.4509,-0.4509,-0.4509,0,-0.4073,-0.4087,-0.4113,-0.4145,-0.4167,-0.4194,-0.4222,-0.4234,-0.4273,-0.4293,-0.4325,-0.4346,-0.439,-0.4423,-0.446,-0.4483,-0.4503,-0.4507,-0.451,-0.4502,-0.449,-0.4497,-0.45,-0.4507,-0.4507,-0.4507,-0.4507,-0.4507,-0.4063,-0.4078,-0.4112,-0.414,-0.4164,-0.419,-0.4208,-0.4235,-0.4262,-0.4299,-0.4317,-0.4349,-0.4385,-0.4437,-0.4459,-0.4486,-0.4491,-0.4496,-0.4497,-0.4498,-0.4496,-0.4485,-0.4492,-0.4493,-0.4493,-0.4493,-0.4493,0,-0.4058,-0.4081,-0.4107,-0.4145,-0.4168,-0.4183,-0.4215,-0.4234,-0.4261,-0.4292,-0.4319,-0.4356,-0.4389,-0.4424,-0.4459,-0.4474,-0.4484,-0.4482,-0.4481,-0.4487,-0.4488,-0.4482,-0.4473,-0.4473,-0.4473,-0.4473,-0.4473,-0.4473,-0.4058,-0.4084,-0.4103,-0.4142,-0.4166,-0.4196,-0.4213,-0.4238,-0.4262,-0.4302,-0.4329,-0.4352,-0.4385,-0.4423,-0.4454,-0.4464,-0.4476,-0.4471,-0.4484,-0.4485,-0.4486,-0.4488,-0.4482,-0.4473,-0.4473,-0.448,-0.448,-0.448]},{"header":{"parameterUnit":"m.s-1","parameterCategory":1,"la1":30.2991,"la2":30.254,"lo1":-89.0895,"lo2":-89.0444,"dy":0.0017,"dx":0.0017,"nx":28,"ny":28,"refTime":"2023-08-18T03:00:00:Z","depth":0,"parameterNumber":3,"parameterNumberName":"V-component_of_WINDS"},"data":[0,0,0,0,0,0,0,0,0,0,0,0,0,0,0,0,0,0,0,0,0,0,0,0,0,0,0,0,0,0,0,0,0,0,0,0,0,0,0,0,0,0,0,0,0,0,0,0,0,0,0,0,0,0,0,0,0,0,4.865,4.865,0,4.8635,4.8634,4.8634,4.8545,4.8543,4.854,4.8538,4.8524,4.8525,4.8527,0,0,0,0,0,0,0,0,0,0,0,0,0,4.8604,4.8605,4.865,4.865,4.865,4.8635,4.8634,4.8634,4.8545,4.8542,4.854,4.8537,4.8523,4.8525,4.8527,0,0,0,0,0,0,0,0,0,0,0,0,0,4.861,4.8606,4.865,4.8604,4.8599,4.8635,4.8634,4.8634,4.8546,4.8542,4.8539,4.8536,4.8523,4.8525,4.8527,4.8607,0,0,4.8535,4.8536,0,0,0,0,0,0,0,0,4.861,4.8612,4.8611,4.8607,4.8602,4.8588,4.8612,4.8625,4.8546,4.8566,4.8538,4.8535,4.8548,4.8548,4.8552,4.8606,4.8605,4.8535,4.8536,4.8537,4.8538,0,0,0,0,0,0,0,4.8609,4.8612,4.8644,4.8611,4.8606,4.8584,4.8581,4.8614,4.8575,4.8564,4.8558,4.8557,4.8545,4.855,4.8551,4.8605,4.8535,4.8537,4.8538,4.8539,4.8722,4.8725,0,0,0,0,0,0,4.8615,4.8612,4.8644,4.8644,4.8598,4.8587,4.8584,4.8596,4.8575,4.8568,4.856,4.8553,4.8548,4.8548,4.855,4.864,4.8537,4.854,4.8541,4.8719,4.8723,4.8726,0,0,0,0,0,0,4.8615,4.8619,4.8645,4.8626,4.8628,4.8591,4.8605,4.8597,4.8602,4.8571,4.8564,4.8572,4.8545,4.8547,4.8593,4.8639,4.8541,4.8543,4.8715,4.872,4.8725,4.8822,0,0,0,0,0,0,4.8614,4.8619,4.8649,4.8627,4.8629,4.8688,4.8608,4.8599,4.8607,4.8597,4.8581,4.8575,4.8543,4.859,4.8595,4.864,4.8545,4.871,4.8717,4.8723,4.8815,4.883,4.8843,0,0,0,0,0,4.8612,4.8678,4.8651,4.8655,4.8665,4.8691,4.8692,4.8653,4.8611,4.864,4.862,4.8576,4.8633,4.8595,4.8601,4.8647,4.8707,4.8715,4.8723,4.8808,4.8827,4.8843,0,0,0,0,0,0,4.8707,4.8674,4.8644,4.8704,4.8701,4.8676,4.8711,4.8674,4.8683,4.8674,4.8626,4.8623,4.8676,4.8666,4.8624,4.8722,4.8663,4.8672,4.8726,4.8743,4.8757,4.8758,4.8547,0,0,0,0,0,4.8734,4.8757,4.8728,4.8784,4.8784,4.8749,4.8758,4.8728,4.8723,4.8721,4.8704,4.8701,4.8718,4.8731,4.8745,4.8814,4.8808,4.8848,4.8862,4.8874,4.8882,4.8916,4.8933,4.8752,4.8752,4.8751,0,0,4.8792,4.8777,4.8795,4.8803,4.8796,4.8821,4.8748,4.8778,4.8795,4.8726,4.8767,4.8756,4.8749,4.8806,4.8831,4.88,4.8931,4.8884,4.8894,4.8895,4.8926,4.8943,4.8958,4.8757,4.8756,4.8755,0,0,4.8909,4.8901,4.8945,4.8941,4.8932,4.8908,4.8919,4.8899,4.8888,4.8929,4.8877,4.8898,4.8929,4.8926,4.8929,4.9044,4.9003,4.9051,4.9124,4.9158,4.9172,4.9185,4.9224,4.9239,4.9059,4.9059,4.906,0,4.8981,4.9016,4.8974,4.9006,4.9011,4.8949,4.8993,4.8991,4.8988,4.8993,4.8958,4.8995,4.8987,4.9041,4.907,4.9074,4.9085,4.9051,4.9174,4.9186,4.9197,4.9234,4.9249,4.9065,4.9064,4.9064,4.9063,0,4.9105,4.913,4.9168,4.9165,4.9174,4.9213,4.9176,4.919,4.916,4.914,4.9182,4.917,4.9179,4.9191,4.9162,4.9242,4.9222,4.9182,4.9121,4.922,4.9254,4.9268,4.9073,4.9071,4.9069,4.9068,0,0,4.928,4.9253,4.9267,4.9264,4.925,4.9269,4.9305,4.9314,4.9326,4.9327,4.9355,4.9383,4.9345,4.9348,4.9318,4.9348,4.9439,4.9304,4.9303,4.9328,4.9524,4.9553,4.9571,4.9413,4.9415,4.9417,4.9524,0,4.9391,4.9449,4.9411,4.9476,4.9498,4.9439,4.9471,4.9466,4.9448,4.9464,4.9444,4.9464,4.9413,4.9415,4.9442,4.9422,4.9477,4.9414,4.9438,4.9439,4.9439,4.9589,4.962,4.9721,4.9537,4.954,4.9541,0,4.9527,4.9532,4.9598,4.9578,4.9586,4.9615,4.9619,4.9636,4.9629,4.9614,4.9617,4.958,4.9614,4.9555,4.9601,4.9558,4.9566,4.9558,4.9561,4.956,4.9495,4.959,4.9753,4.9767,4.9562,4.9561,4.9559,0,4.9645,4.9669,4.9711,4.9711,4.969,4.9711,4.9703,4.9693,4.97,4.9705,4.9709,4.9718,4.9723,4.9731,4.9697,4.9658,4.9747,4.9685,4.9734,4.9735,4.9754,4.9753,4.9919,4.9763,4.9763,4.9762,4.9762,0,4.9771,4.9814,4.9764,4.979,4.9835,4.9792,4.9839,4.9825,4.9816,4.9839,4.979,4.9812,4.9766,4.9784,4.9758,4.9799,4.9802,4.9791,4.9783,4.9794,4.9795,4.9797,4.9788,4.9766,4.9765,4.9765,4.9764,0,4.9911,4.9879,4.9921,4.9897,4.9892,4.9927,4.9906,4.9929,4.9908,4.9937,4.9941,4.9908,4.9926,4.9894,4.9908,4.9891,4.9947,4.993,4.9949,4.9943,4.9993,4.9988,5.0164,5.0184,5.0018,5.0019,5.0021,0,4.9992,5.0023,5.0002,5.0013,5.0008,5.0026,5.0033,4.9992,5.0002,4.9996,5.0019,5.0033,5.0042,5.0074,5.0051,5.0062,5.0043,5.0104,5.0044,5.0054,5.0042,5.0039,5.0042,5.0115,5.0117,5.0119,5.0121,0,5.014,5.0122,5.0134,5.014,5.0149,5.0153,5.0152,5.0164,5.0121,5.0134,5.0151,5.0158,5.0172,5.0186,5.0191,5.0183,5.0145,5.014,5.0151,5.0162,5.0171,5.0165,4.9981,5.0135,5.0134,5.0133,5.0132,5.0131,5.0251,5.0276,5.0264,5.0278,5.0274,5.0274,5.0294,5.0275,5.0289,5.0296,5.0271,5.0294,5.0286,5.0289,5.0285,5.0303,5.0275,5.0293,5.0297,5.0301,5.0308,5.017,5.0304,5.0303,5.0303,5.0302,5.0302,0,5.0395,5.0384,5.0398,5.0398,5.0409,5.0372,5.0369,5.0381,5.0402,5.0397,5.0406,5.0426,5.0439,5.0418,5.0428,5.0446,5.0428,5.045,5.0447,5.0445,5.0333,5.0321,5.0463,5.0463,5.0463,5.0463,5.0463,5.0463,5.0471,5.0509,5.049,5.0526,5.0515,5.0536,5.0538,5.0538,5.0534,5.0557,5.0568,5.0554,5.0542,5.0551,5.0561,5.0555,5.056,5.0587,5.0575,5.0469,5.0454,5.0438,5.0427,5.0589,5.0589,5.0685,5.0686,5.0687]}]]